TimeCDT,TemperatureF,Dew PointF,Humidity,Sea Level PressureIn,VisibilityMPH,Wind Direction,Wind SpeedMPH,Gust SpeedMPH,PrecipitationIn,Events,Conditions,WindDirDegrees,DateUTC
12:17 AM,46.4,41.0,81,29.95,10.0,NE,9.2,-,N/A,,Mostly Cloudy,40,2012-10-22 05:17:00
12:52 AM,46.0,41.0,83,29.94,10.0,NE,10.4,-,N/A,,Overcast,50,2012-10-22 05:52:00
1:10 AM,46.4,41.0,81,29.95,10.0,NE,10.4,-,N/A,,Overcast,40,2012-10-22 06:10:00
1:52 AM,45.0,41.0,86,29.95,10.0,NNE,8.1,-,N/A,,Overcast,20,2012-10-22 06:52:00
2:52 AM,45.0,41.0,86,29.96,10.0,NNE,10.4,16.1,N/A,,Overcast,30,2012-10-22 07:52:00
3:52 AM,45.0,41.0,86,29.95,9.0,North,5.8,-,N/A,,Overcast,10,2012-10-22 08:52:00
4:39 AM,42.8,39.2,87,29.94,5.0,NNE,8.1,-,N/A,,Overcast,20,2012-10-22 09:39:00
4:52 AM,42.8,39.2,87,29.95,4.0,NNE,8.1,-,N/A,,Overcast,20,2012-10-22 09:52:00
5:03 AM,42.8,39.2,87,29.95,3.0,North,11.5,-,N/A,,Overcast,10,2012-10-22 10:03:00
5:15 AM,41.0,39.2,93,29.94,2.5,North,10.4,-,N/A,,Overcast,10,2012-10-22 10:15:00
5:26 AM,41.0,39.2,93,29.94,3.0,NNE,9.2,-,N/A,,Overcast,20,2012-10-22 10:26:00
5:38 AM,41.0,39.2,93,29.94,2.5,North,11.5,-,N/A,,Overcast,10,2012-10-22 10:38:00
5:52 AM,41.0,39.9,96,29.96,2.5,North,6.9,-,N/A,,Overcast,360,2012-10-22 10:52:00
6:40 AM,41.0,39.2,93,29.97,3.0,North,6.9,-,N/A,,Overcast,350,2012-10-22 11:40:00
6:52 AM,41.0,39.2,93,29.97,2.5,North,6.9,-,N/A,,Overcast,350,2012-10-22 11:52:00
7:07 AM,41.0,39.2,93,29.97,1.8,North,6.9,-,N/A,,Overcast,350,2012-10-22 12:07:00
7:20 AM,41.0,39.2,93,29.96,2.0,North,8.1,-,N/A,,Overcast,360,2012-10-22 12:20:00
7:31 AM,39.2,39.2,100,29.96,5.0,NNE,9.2,-,N/A,,Overcast,20,2012-10-22 12:31:00
7:52 AM,39.2,39.2,100,29.95,3.0,NE,5.8,-,N/A,,Overcast,40,2012-10-22 12:52:00
8:04 AM,39.2,39.2,100,29.95,1.8,NE,5.8,-,N/A,,Overcast,40,2012-10-22 13:04:00
8:21 AM,39.2,39.2,100,29.96,2.5,NE,5.8,-,N/A,,Overcast,50,2012-10-22 13:21:00
8:43 AM,39.2,39.2,100,29.96,1.2,ENE,5.8,-,N/A,,Overcast,70,2012-10-22 13:43:00
8:52 AM,39.9,39.0,97,29.99,0.8,ENE,5.8,-,N/A,,Overcast,60,2012-10-22 13:52:00
9:05 AM,39.2,39.2,100,29.96,1.0,NE,6.9,-,N/A,,Overcast,50,2012-10-22 14:05:00
9:12 AM,39.2,39.2,100,29.96,1.5,ENE,6.9,-,N/A,,Overcast,70,2012-10-22 14:12:00
9:36 AM,39.2,39.2,100,29.97,3.0,East,6.9,-,N/A,,Overcast,90,2012-10-22 14:36:00
9:52 AM,39.9,39.9,100,30.01,2.0,East,4.6,-,N/A,,Overcast,80,2012-10-22 14:52:00
10:08 AM,41.0,39.2,93,29.97,4.0,Calm,Calm,-,N/A,,Overcast,0,2012-10-22 15:08:00
10:26 AM,41.0,39.2,93,29.97,2.0,Calm,Calm,-,N/A,,Overcast,0,2012-10-22 15:26:00
10:45 AM,41.0,39.2,93,29.97,4.0,Calm,Calm,-,N/A,,Overcast,0,2012-10-22 15:45:00
10:52 AM,41.0,39.2,93,29.96,4.0,NE,3.5,-,N/A,,Overcast,50,2012-10-22 15:52:00
11:52 AM,42.1,39.9,92,29.99,10.0,NW,3.5,-,N/A,,Overcast,320,2012-10-22 16:52:00
12:52 PM,44.1,39.9,85,29.98,10.0,NNW,3.5,-,N/A,,Overcast,340,2012-10-22 17:52:00
1:52 PM,45.0,39.9,82,29.94,8.0,NE,3.5,-,N/A,,Overcast,40,2012-10-22 18:52:00
2:52 PM,45.0,41.0,86,29.91,6.0,NE,4.6,-,N/A,,Overcast,50,2012-10-22 19:52:00
3:29 PM,44.6,41.0,87,29.87,2.0,Calm,Calm,-,N/A,,Overcast,0,2012-10-22 20:29:00
3:42 PM,44.6,42.8,93,29.87,2.0,Calm,Calm,-,N/A,,Overcast,0,2012-10-22 20:42:00
3:50 PM,44.6,42.8,93,29.87,1.8,Calm,Calm,-,N/A,,Overcast,0,2012-10-22 20:50:00
3:52 PM,44.1,42.1,93,29.90,2.0,Calm,Calm,-,N/A,,Overcast,0,2012-10-22 20:52:00
4:02 PM,44.6,42.8,93,29.87,1.8,Calm,Calm,-,N/A,,Overcast,0,2012-10-22 21:02:00
4:16 PM,44.6,42.8,93,29.87,2.5,Calm,Calm,-,N/A,,Overcast,0,2012-10-22 21:16:00
4:52 PM,44.1,42.1,93,29.89,2.5,ENE,3.5,-,N/A,,Overcast,60,2012-10-22 21:52:00
5:17 PM,44.6,42.8,93,29.85,3.0,East,5.8,-,N/A,,Overcast,80,2012-10-22 22:17:00
5:52 PM,44.1,42.1,93,29.88,5.0,East,3.5,-,N/A,,Overcast,90,2012-10-22 22:52:00
6:27 PM,44.6,42.8,93,29.85,3.0,East,5.8,-,N/A,,Overcast,80,2012-10-22 23:27:00
6:49 PM,44.6,42.8,93,29.83,4.0,East,6.9,-,N/A,,Overcast,80,2012-10-22 23:49:00
6:52 PM,44.1,42.1,93,29.86,5.0,East,8.1,-,N/A,,Overcast,80,2012-10-22 23:52:00
6:59 PM,44.6,42.8,93,29.82,7.0,East,6.9,-,N/A,,Overcast,90,2012-10-22 23:59:00
7:39 PM,44.6,42.8,93,29.82,10.0,East,8.1,-,N/A,,Overcast,100,2012-10-23 00:39:00
8:40 PM,46.4,42.8,87,29.82,10.0,East,6.9,-,N/A,,Overcast,90,2012-10-23 01:40:00
8:52 PM,46.0,42.1,86,29.85,10.0,East,10.4,-,N/A,,Overcast,100,2012-10-23 01:52:00
9:11 PM,46.4,42.8,87,29.81,10.0,ESE,9.2,-,N/A,,Overcast,110,2012-10-23 02:11:00
9:52 PM,46.0,43.0,89,29.84,10.0,ESE,6.9,-,N/A,,Overcast,110,2012-10-23 02:52:00
10:20 PM,46.4,42.8,87,29.81,10.0,ESE,4.6,-,N/A,,Overcast,110,2012-10-23 03:20:00
11:52 PM,46.9,45.0,93,29.81,5.0,SE,8.1,-,N/A,,Overcast,130,2012-10-23 04:52:00